Hourly Data Report for April 06, 2017

KENORA A
ONTARIO

49°47'18.000" N
94°21'47.000" W
409.70 m
6034076
71850
YQK

Download Data

Hourly Data (April 2017)
Hourly Data Report for April 6, 2017
TIME
LST
Temp Definition
°C
Dew Point Definition
°C
Rel Hum Definition
%
Precip. Amount Definition
mm

Wind Dir Definition
10's deg

Wind Spd Definition
km/h
Visibility Definition
km
Stn Press Definition
kPa
Hmdx Definition


Wind Chill Definition


Weather Definition


00:00 0.6 -5.7 63   35 7 24.1 97.36     Clear
01:00 -0.2 -5.8 66   36 9 24.1 97.40   -3 LegendNANA
02:00 -0.8 -6.0 68   36 9 24.1 97.42   -4 LegendNANA
03:00 -1.5 -6.3 70   1 8 24.1 97.44   -5 Clear
04:00 -1.5 -6.7 68   2 8 24.1 97.49   -5 LegendNANA
05:00 -2.3 -6.7 72   1 8 24.1 97.56   -5 LegendNANA
06:00 -2.1 -6.9 70   4 10 24.1 97.61   -6 Clear
07:00 -0.8 -6.2 67   2 8 24.1 97.65   -4 LegendNANA
08:00 2.2 -6.2 54   8 5 24.1 97.67     LegendNANA
09:00 3.8 -6.2 48   1 4 24.1 97.73     Clear
10:00 5.2 -7.0 41   2 8 24.1 97.71     LegendNANA
11:00 6.4 -7.3 37   7 10 24.1 97.69     LegendNANA
12:00 7.1 -8.5 32   8 9 24.1 97.66     Clear
13:00 8.5 -7.3 32   36 3 24.1 97.59     LegendNANA
14:00 8.5 -7.7 31   36 7 24.1 97.54     LegendNANA
15:00 9.3 -7.4 30   21 5 24.1 97.49     Mainly Clear
16:00 8.9 -7.3 31   23 13 24.1 97.46     LegendNANA
17:00 9.0 -7.2 31   23 9 24.1 97.44     LegendNANA
18:00 8.0 -7.7 32   22 12 24.1 97.42     Mainly Clear
19:00 5.7 -8.3 36   20 9 24.1 97.35     LegendNANA
20:00 4.3 -7.8 41   22 7 24.1 97.32     LegendNANA
21:00 3.2 -7.6 45   22 9 24.1 97.31     Mainly Clear
22:00 2.6 -7.9 46   21 7 24.1 97.27     LegendNANA
23:00 2.8 -7.7 46   18 7 24.1 97.25     LegendNANA

Notes on Data Quality.

Legend

  • E = Estimated
  • M = Missing
  • NA = Not Available*
  • [empty] = Indicates an unobserved value
Date modified: